www.pogodaiklimat.ru

Погода и климат >> Архив погоды >> Сенегал >> Кедугу


ПОГОДА в Кедугу

  • Прогноз погоды в Кедугу
  • Монитор погоды в Кедугу

АРХИВ ПОГОДЫ в Кедугу

Время (UTC), дата Ветер
(напр.,м/с)
 
Видим.   Явления Облачность Т
(С)
Тd
(С)
f
(%)
Тe
(С)
Тes
(С)
Комфортность P
(гПа)
Po
(гПа)
Тmin
(С)
Tmax
(С)
R
(мм)
R24
(мм)
S
(см)
06 13.02 штиль 0 10 км 4/0
[Ac trans]
+22.0 +5.1 33 +22 +22 комфорт 1010.4 991.7 +22.0
09 13.02 СВ 2 8000 м 8/0
[Ac trans]
+24.0 +2.3 24 +23 +26 комфорт 1013.0 994.2
12 13.02 ЮВ 6 8000 м 8/0
[Ac trans Ci sp]
+34.2 +3.7 15 +31 +36 жарко 1012.4 993.8
15 13.02 В 4 8000 м 8/0
[Ac trans Ci sp]
+36.0 +6.6 16 +34 +39 очень
жарко
1009.0 990.4
18 13.02 СВ 4 10 км 8/0
[Ci sp]
+36.2 +8.0 18 +34 +35 очень
жарко
1008.3 989.7 +38.0
03 14.02 В 1 10 км 5/0
[Ci sp]
+23.0 +3.8 29 +23 +23 комфорт 1011.0 992.3
06 14.02 штиль 0 10 км 4/0
[Ci sp]
+21.0 +3.4 31 +21 +21 комфорт 1011.0 992.3 +20.0
09 14.02 ЮВ 3 10 км 4/0
[Ac trans Ci sp]
+27.0 +6.3 27 +26 +29 жарко 1013.0 994.2
12 14.02 В 3 10 км 4/0
[Ci sp]
+36.5 +5.9 15 +34 +47 очень
жарко
1012.6 994.0
15 14.02 СЗ 2 10 км 4/0
[Ac trans Ci sp]
+39.0 +11.0 19 +38 +48 очень
жарко
1009.2 990.7
18 14.02 В 2 10 км 8/0
[Ac trans]
+38.5 +10.1 18 +37 +37 очень
жарко
1008.7 990.1 +40.5
03 15.02 Ю 1 10 км 9/0
[Ac As]
+25.0 +9.8 38 +26 +26 жарко 1011.0 992.5
06 15.02 штиль 0 10 км 9/0
[Ac As]
+25.7 +7.8 32 +26 +26 жарко 1011.7 993.0 +25.0
09 15.02 штиль 0 10 км 9/0
[Ac As]
+25.5 +10.5 39 +26 +29 жарко 1012.8 994.0
12 15.02 ЮВ 2 10 км 8/0
[Ac As]
+36.3 +9.3 19 +35 +42 очень
жарко
1012.8 994.3
15 15.02 В 2 10 км 9/0
[Ci sp]
+39.0 +9.6 17 +37 +48 очень
жарко
1008.6 990.2
18 15.02 В 2 10 км 9/0
[Ci sp]
+37.5 +11.0 20 +36 +37 очень
жарко
1008.6 990.1 +40.0
03 16.02 ЮВ 1 10 км 4/0
[Ci sp]
+26.0 +8.8 34 +26 +26 жарко 1009.1 990.6
06 16.02 Ю 2 10 км 6/0
[Ac trans Ci sp]
+25.5 +8.0 33 +26 +26 жарко 1009.4 990.9 +25.0
09 16.02 Ю 2 10 км 9/0
[Ac trans Ci sp]
+27.0 +10.3 35 +28 +31 жарко 1010.6 992.0
12 16.02 В 2 10 км 8/0
[Ci sp]
+36.7 +12.9 24 +37 +51 опасность
солнечного
удара
1010.3 991.9
15 16.02 штиль 0 10 км 6/0
[Ci sp]
+40.0 +10.1 17 +39 +54 опасность
солнечного
удара
1006.9 988.6
18 16.02 С 3 10 км 9/0
[Ac trans Ci sp]
+39.0 +11.0 19 +38 +38 очень
жарко
1006.8 988.4 +41.2
03 17.02 штиль 0 10 км 6/0
[Ac trans Ci sp]
+26.0 +10.1 37 +27 +27 жарко 1008.9 990.5
06 17.02 штиль 0 10 км 8/0
[Ac trans Ci sp]
+24.5 +4.9 28 +24 +24 комфорт 1008.8 990.4 +24.0
09 17.02 З 2 10 км ясно +28.0 +5.1 23 +27 +32 жарко 1010.5 991.8
12 17.02 штиль 0 10 км 6/0
[Ci sp]
+35.0 +9.2 21 +34 +55 опасность
солнечного
удара
1010.9 992.4
15 17.02 В 3 10 км 9/0
[Ci sp]
+39.5 +11.9 19 +39 +47 очень
жарко
1007.6 989.2
18 17.02 С 3 10 км 9/0
[Ci sp]
+39.0 +11.0 19 +38 +38 очень
жарко
1006.8 988.3 +41.0
03 18.02 штиль 0 10 км 3/0
[Ci sp]
+27.0 +9.1 32 +27 +27 жарко 1009.4 991.0
06 18.02 З 3 10 км 4/0
[Ci sp]
+26.5 +16.1 53 +30 +30 душно 1008.8 990.4 +25.0
12 18.02 З 3 10 км ясно +34.0 +13.2 28 +34 +49 очень
жарко
1010.6 992.0
15 18.02 З 3 10 км 4/0
[Ci sp]
+38.0 +10.6 19 +37 +47 очень
жарко
1007.0 988.6
18 18.02 З 4 10 км ясно +37.0 +11.5 22 +36 +37 очень
жарко
1005.8 987.4 +39.0
03 19.02 З 2 10 км 3/0
[Ci sp]
+25.0 +8.5 35 +25 +25 комфорт 1009.1 990.6
06 19.02 Ю 1 10 км 5/0
[Ac trans Ci sp]
+24.2 +8.1 36 +25 +25 комфорт 1008.5 989.7 +24.0
09 19.02 З 3 10 км 8/0
[Ac trans Ci sp]
+27.5 +5.7 25 +27 +30 жарко 1010.3 991.6
12 19.02 З 3 10 км 5/0
[Ci sp]
+33.0 +6.9 20 +31 +44 жарко 1010.2 991.6
15 19.02 СЗ 5 10 км 8/0
[Ci sp]
+37.0 +8.4 18 +35 +41 очень
жарко
1006.2 987.7
18 19.02 СЗ 4 10 км 9/0
[Ac trans Ci sp]
+36.0 +8.2 18 +34 +34 очень
жарко
1005.6 987.1 +38.5
03 20.02 штиль 0 10 км 8/0
[Ac trans Ci sp]
+24.5 +6.4 31 +24 +24 комфорт 1009.7 991.1

 

Местоположение метеостанции Кедугу (Сенегал): широта 12.57 долгота -12.21 высота над уровнем моря 167 м.

В архиве по умолчанию представлена погода в Кедугу за последнюю неделю. Архивные данные за месяц целиком и за предыдущие месяцы, начиная с января 2011 года, Вы можете получить, выбрав интересующий диапазон дат из раскрывающегося списка и нажав кнопку "Ввод!".


*Определитесь, кто Вы:
робот инопланетянин человек

Внимание! Время в таблицах - всемирное. Для получения местного времени необходимо прибавить поправку, которая равна 0 ч.

Смотрите также архив погоды в соседних городах и на ближайших метеорологических станциях:

Погода в Кеньебе (Мали) (111 км)
Погода в Кундаре (Гвинея) (141 км)
Погода в Фатото (Гамбия) (195 км)
Погода в Тамбакунде (Сенегал) (208 км)
Погода в Каесе (Мали) (223 км)
Погода в Бассе (Гамбия) (230 км)
Погода в Бафате (Гвинея-Биссау) (271 км)
Погода в Киндиа (Гвинея) (289 км)
Погода в Джорджтауне (Гамбия) (297 км)
Погода в Колде (Сенегал) (300 км)

Пояснения к столбцам:

Ветер - указаны скорость ветра в м/с - средняя за 10 мин, порывы в срок и между сроками (в фигурных скобках) и направление, откуда дует ветер: С - северный, СВ - северо-восточный, В - восточный, ЮВ - юго-восточный, Ю - южный, ЮЗ - юго-западный, З - западный, СЗ - северо-западный.
Видимость - горизонтальная дальность видимости в метрах или километрах. При видимости от 1 до 10 км при отсутствии осадков обычно наблюдается дымка, при ухудшении видимости до 1 км и менее - туман. В сухую погоду видимость может ухудшаться дымом, пылью или мглою.
Явления - указаны атмосферные явления, наблюдавшиеся в срок или в последний час перед сроком; фигурными скобками обозначены явления, наблюдавшиеся между сроками (за 1-3 часа до срока); квадратными скобками обозначены град или гололедные отложения с указанием их диаметра в мм.
Облачность - указаны через наклонную черту общая и нижняя облачность в баллах и высота нижней границы облаков в метрах; квадратными скобками обозначены формы облаков: Ci - перистые, Cs - перисто-слоистые, Cc - перисто-кучевые, Ac - высококучевые, As - высокослоистые, Sc - слоисто-кучевые, Ns - слоисто-дождевые, Cu - кучевые, Cb - кучево-дождевые. Подробнее классификацию облаков см. в Атласе облаков (PDF).
T - Температура воздуха - температура, измеренная на высоте 2 м над землей.
Td - Температура точки росы - температура, при понижении до которой содержащийся в воздухе водяной пар достигнет насыщения.
f - Относительная влажность воздуха - влажноcть воздуха, измеренная на высоте 2 м над землей.
Te - Эффективная температура - температура, которую ощущает одетый по сезону человек в тени. Характеристика душности погоды. При расчете учитывается влияние влажности воздуха и скорости ветра на теплоощущения человека.
Tes - Эффективная температура на солнце - температура, которую ощущает человек, с поправкой на солнечный нагрев. Характеристика знойности погоды. Зависит от высоты солнца над горизонтом, облачности и скорости ветра. Ночью, в пасмурную погоду, а также при ветре 12 м/с и более поправка равна нулю.
P - Атмосферное давление - приведенное к уровню моря атмосферное давление.
Po - Атмосферное давление - измеренное на уровне метеостанции атмосферное давление.
Tmin - Минимальная температура - минимум температуры воздуха на высоте 2 м над землей.
Tmax - Максимальная температура - максимум температуры воздуха на высоте 2 м над землей.
R - Количество осадков - Количество выпавших осадков за период времени, мм. При наведении курсора мыши на число - период времени, за который выпало указанное количество осадков.
R24 - Количество осадков - Количество выпавших осадков за 24 часа, мм.
S - Снежный покров - Высота снежного покрова, см. При наведении курсора мыши на число - состояние снежного покрова и степень покрытия местности в баллах.